Flag for Germany Weather past 2 weeks in Neumünster, Schleswig-Holstein, Germany

Now
51 °F

Passing clouds.


Feels Like: 51 °F
Forecast: 54 / 63 °F
Wind: 1 mph from East

Location: Itzehoe

Current Time: Sep 20, 2014 at 9:05:15 AM

Latest Report: Sep 20, 2014 at 8:00 AM


Visibility: 1 mi

Pressure: 29.94 "Hg

Humidity: 97%

Dew point: 51 °F

Location of NeumünsterLocation

Historic Weather in Neumünster — Graph

°F

Neumünster temperature yesterday

Maximum temperature yesterday: 74 °F (at 4:00 PM)
Minimum temperature yesterday: 56 °F (at 5:00 AM)
Average temperature yesterday: 64 °F

Past Weeks' High & Low Weather Summary

 TemperatureHumidityPressure
High77 °F (Sep 5, 6:00 PM)100% (Sep 8, 4:00 AM)30.28 "Hg (Sep 8, 4:00 AM)
Low48 °F (Sep 9, 12:00 AM)49% (Sep 17, 1:00 PM)29.88 "Hg (Sep 6, 4:00 PM)
Average62 °F82%30.05 "Hg
* Reported Sep 5 9:00 AM — Sep 20 8:00 AM, Neumünster, Weather by CustomWeather, © 2014

Note: Actual official high and low records may vary slightly from our data, if they occured in-between our weather recording intervals... More about our weather records

Advertising

Neumünster weather history for previous 24 hours

 ConditionsComfort  
Time TempWeatherWind HumidityBarometerVisibility
8:00 AM
Sep 20
51 °FPassing clouds.1 mph97%29.94 "Hg1 mi
7:00 AM49 °FPassing clouds.1 mph99%29.93 "Hg0 mi
6:00 AM52 °FPassing clouds.1 mph99%29.93 "Hg0 mi
5:00 AM53 °FClear.2 mph99%29.93 "Hg1 mi
4:00 AM53 °FClear.1 mph99%29.93 "Hg1 mi
3:00 AM54 °FClear.1 mph98%29.93 "Hg1 mi
2:00 AM56 °FClear.No wind95%29.93 "Hg2 mi
1:00 AM58 °FClear.1 mph94%29.93 "Hg2 mi
12:00 AM59 °FClear.1 mph91%29.94 "Hg3 mi
10:00 PM
Sep 19
64 °FOvercast.2 mph83%29.94 "Hg6 mi
9:00 PM64 °FOvercast.3 mph83%29.93 "Hg7 mi
8:00 PM65 °FClear.3 mph75%29.92 "Hg11 mi
7:00 PM69 °FSunny.3 mph64%29.91 "Hg13 mi
6:00 PM73 °FSunny.5 mph56%29.90 "Hg16 mi
4:00 PM74 °FSunny.3 mph54%29.90 "Hg13 mi
3:00 PM74 °FPassing clouds.5 mph55%29.91 "Hg11 mi
1:00 PM72 °FSunny.3 mph60%29.92 "Hg9 mi
12:00 PM70 °FSunny.5 mph64%29.93 "Hg7 mi
10:00 AM62 °FOvercast.3 mph80%29.93 "Hg6 mi
9:00 AM59 °FPassing clouds.3 mph89%29.92 "Hg4 mi
Weather by CustomWeather, © 2014

See weather overviewHow to use our weather pages